Location: Unspecified
(51.5147°N, 7.4673°E)
Time: 11:19:31
(UTC+01:00)

Vanguard 1 - All Passes

Search period start: 19 February 2026 00:00
Search period end: 01 March 2026 00:00
Orbit: 652 x 3819 km, 34.3° (Epoch: 17 February)

Date Brightness Start Highest point End Pass type
(mag) Time Alt. Az. Time Alt. Az. Time Alt. Az.
19 Feb - 14:25:09 10° S 14:32:21 21° SE 14:42:40 10° E daylight
19 Feb - 16:41:11 10° SW 16:52:13 39° SSE 17:09:49 10° ESE daylight
19 Feb - 19:00:26 10° WSW 19:14:28 41° S 19:34:26 10° SE visible
19 Feb - 21:22:36 10° W 21:37:15 28° SSW 21:54:29 10° SSE visible
20 Feb - 14:43:07 10° SSW 14:50:56 25° SE 15:02:43 10° E daylight
20 Feb - 17:00:02 10° SW 17:11:15 40° S 17:29:11 10° ESE daylight
20 Feb - 19:19:42 10° WSW 19:33:38 38° SSW 19:53:06 10° SE visible
20 Feb - 21:42:49 10° W 21:56:09 23° SW 22:11:31 10° S visible
21 Feb - 15:01:25 10° SSW 15:09:38 29° SSE 15:22:30 10° E daylight
21 Feb - 17:18:59 10° WSW 17:30:21 41° S 17:48:26 10° ESE daylight
21 Feb - 19:39:05 10° WSW 19:52:46 35° SSW 20:11:28 10° SE visible
21 Feb - 22:03:41 10° WSW 22:14:58 18° SW 22:27:39 10° S visible
22 Feb - 13:06:46 10° SSE 13:09:50 12° SE 13:13:26 10° ESE daylight
22 Feb - 15:19:55 10° SW 15:28:26 32° SSE 15:42:08 10° ESE daylight
22 Feb - 17:38:01 10° WSW 17:49:28 40° S 18:07:31 10° ESE daylight
22 Feb - 19:58:38 10° WSW 20:11:52 30° SSW 20:29:30 10° SSE visible
22 Feb - 22:26:01 10° WSW 22:33:44 13° SW 22:42:03 10° SSW visible
23 Feb - 13:23:30 10° S 13:28:17 16° SE 13:34:36 10° ESE daylight
23 Feb - 15:38:36 10° SW 15:47:20 34° SSE 16:01:38 10° ESE daylight
23 Feb - 17:57:09 10° WSW 18:08:37 38° S 18:26:25 10° SE daylight
23 Feb - 20:18:26 10° WSW 20:30:56 26° SSW 20:47:05 10° SSE visible
24 Feb - 13:41:13 10° S 13:46:52 20° SE 13:54:51 10° ESE daylight
24 Feb - 15:57:24 10° SW 16:06:19 35° S 16:21:00 10° ESE daylight
24 Feb - 18:16:23 10° WSW 18:27:47 35° SSW 18:45:05 10° SE visible
24 Feb - 20:38:38 10° WSW 20:49:57 21° SW 21:04:02 10° S visible
25 Feb - 13:59:22 10° SSW 14:05:32 23° SSE 14:14:43 10° ESE daylight
25 Feb - 16:16:19 10° SW 16:25:22 36° S 16:40:14 10° ESE daylight
25 Feb - 18:35:45 10° WSW 18:46:57 31° SSW 19:03:28 10° SE visible
25 Feb - 20:59:34 10° WSW 21:08:55 16° SW 21:20:00 10° S visible
26 Feb - 14:17:48 10° SSW 14:24:18 26° SSE 14:34:22 10° ESE daylight
26 Feb - 16:35:20 10° WSW 16:44:27 35° S 16:59:19 10° SE daylight
26 Feb - 18:55:18 10° WSW 19:06:05 27° SSW 19:21:28 10° SSE visible
26 Feb - 21:22:29 10° WSW 21:27:50 12° SW 21:33:41 10° SSW visible
27 Feb - 12:23:20 10° SSE 12:24:43 10° SE 12:26:12 10° SE daylight
27 Feb - 14:36:25 10° SW 14:43:11 28° SSE 14:53:51 10° ESE daylight
27 Feb - 16:54:27 10° WSW 17:03:34 33° S 17:18:13 10° SE daylight
27 Feb - 19:15:08 10° WSW 19:25:13 23° SSW 19:38:59 10° SSE visible
28 Feb - 12:39:52 10° S 12:43:18 14° SE 12:47:32 10° ESE daylight
28 Feb - 14:55:12 10° SW 15:02:07 29° SSE 15:13:12 10° ESE daylight
28 Feb - 17:13:41 10° WSW 17:22:43 30° S 17:36:51 10° SE daylight
28 Feb - 19:35:26 10° WSW 19:44:19 18° SSW 19:55:46 10° S visible
